262  
ASUS41 KLWX 161711  
RWRLWX  
 
REGIONAL WEATHER ROUNDUP  
NATIONAL WEATHER SERVICE BALTIMORE MD/WASHINGTON DC  
100 PM EDT TUE OCT 16 2018  
 
NOTE: "FAIR" INDICATES FEW OR NO CLOUDS BELOW 12,000 FEET  
WITH NO SIGNIFICANT WEATHER AND/OR S TO VISIBILITY
.  
TC=TEMPERATURE CELSIUS  
 
* =NON NWS SITE. STATION DOES NOT REPORT PRECIPITATION (E.G. RAIN,  
SNOW, ETC.), THUNDER, OR FOG.
 
 
DCZ001-MDZ009-015-VAZ040>042-051-053>054-161800-  
WASHINGTON METRO  
 
CITY SKY/WX TMP DP RH WIND PRES REMARKS
 
WASHINGTON NAT CLOUDY 59 38 45 NW9 30.21F  
DULLES PTSUNNY 56 40 55 NW5 30.20F  
ANDREWS AFB PTSUNNY 58 36 44 NW8 30.19F  
FT BELVOIR FAIR 58 45 61 NW5 30.20F  
QUANTICO PTSUNNY 57 43 59 E5 30.21F  
LEESBURG* FAIR 55 43 62 N9 30.21F  
MANASSAS* FAIR 59 43 55 N6 30.21F  
GAITHERSBURG* FAIR 55 40 56 NW9 30.21F  
 

 
 
MDZ006>007-011-014-161800-  
BALTIMORE METRO  
 
CITY SKY/WX TMP DP RH WIND PRES REMARKS
 
BWI AIRPORT PTSUNNY 58 39 49 NW8 30.18F  
MD SCIENCE CTR N/A 59 39 47 MISG 30.21F  
MARTIN STATE MOSUNNY 57 43 58 NW8 30.20F  
ANNAPOLIS FAIR 62 41 46 N8 30.19F  
 

 
 
MDZ012-015-019>023-161800-  
MARYLAND EASTERN SHORE  
 
CITY SKY/WX TMP DP RH WIND PRES REMARKS
 
OCEAN CITY FAIR 60 43 53 N6 30.19F  
SALISBURY FAIR 58 44 60 N3 30.19F  
EASTON* PTSUNNY 59 41 51 N6 30.23F  
 

 
 
MDZ017>025-161800-  
SOUTHERN MARYLAND  
 
CITY SKY/WX TMP DP RH WIND PRES REMARKS
 
PATUXENT RIVER PTSUNNY 62 39 42 NW8 30.19F  
ST INIGOES FAIR 60 40 47 N5 30.19F  
LEONARDTOWN* NOT AVBL  
 

 
 
MDZ003>005-161800-  
NORTH CENTRAL MARYLAND  
 
CITY SKY/WX TMP DP RH WIND PRES REMARKS
 
FREDERICK* SUNNY 55 39 54 NW7 30.24F  
HAGERSTOWN APT FAIR 56 38 50 W6 30.19F  
WESTMINSTER* FAIR 54 32 43 W7 30.18F  
 

 
 
MDZ501>502-161800-  
WESTERN MARYLAND  
 
CITY SKY/WX TMP DP RH WIND PRES REMARKS
 
OAKLAND* NOT AVBL  
CUMBERLAND* NOT AVBL  
 

 
 
VAZ025>031-161800-  
SHENANDOAH VALLEY  
 
CITY SKY/WX TMP DP RH WIND PRES REMARKS
 
WINCHESTER* FAIR 52 39 62 W7 30.21F  
FRONT ROYAL* FAIR N/A N/A N/A CALM 30.19F  
LURAY* FAIR 59 45 58 N5 30.18F  
NEW MARKET* FAIR 60 44 54 S3 30.16F  
STAUNTON* FAIR 60 48 64 S5 30.19F  
WAYNESBORO* FAIR 59 49 70 CALM 30.18F  
 

 
 
WVZ021-048>050-054>055-161800-  
EASTERN WEST VIRGINIA PANHANDLE  
 
CITY SKY/WX TMP DP RH WIND PRES REMARKS
 
MARTINSBURG FAIR 54 37 52 NW9 30.19F  
PETERSBURG* FAIR 58 41 52 CALM 30.18F  
 

 
 
VAZ036>039-050-161800-  
CENTRAL FOOTHILLS  
 
CITY SKY/WX TMP DP RH WIND PRES REMARKS
 
CHARLOTTESVILL FAIR 58 46 64 NE6 30.19F  
CULPEPER* FAIR 59 43 55 CALM 30.21F  
ORANGE* FAIR 54 43 66 CALM 30.20F  
GORDONSVILLE* PTSUNNY 55 45 70 CALM 30.20F  
WARRENTON* FAIR 59 40 48 N5 30.20F  
 

 
 
VAZ055>057-161800-  
NORTH AND CENTRAL PIEDMONT  
 
CITY SKY/WX TMP DP RH WIND PRES REMARKS
 
FREDERICKSBRG* FAIR 56 44 64 NE5 30.20F  
STAFFORD* FAIR 55 44 66 CALM 30.24F  
 

 
 
NCZ024-NYZ072-PAZ021-071-VAZ022-071-161800-  
OTHER REGIONAL OBSERVATIONS  
 
CITY SKY/WX TMP DP RH WIND PRES REMARKS
 
NEW YORK CITY FAIR 53 31 42 MISG 30.15F  
PHILADELPHIA PTSUNNY 55 34 45 NW3 30.18F  
PITTSBURGH PTSUNNY 46 30 53 S10 30.19F  
ROANOKE MOSUNNY 64 53 67 CALM 30.19F  
RICHMOND CLOUDY 62 48 60 NE8 30.19F  
RALEIGH PTSUNNY 74 63 68 VRB3 30.15F  
 

 
 
ANZ530>537-161800-  
MARINE OBSERVATIONS  
 
STATION/POSITION TIME TEMP WIND PRES
 
AIR SEA DIR/SP/G  
(UTC) (F) (DEG/KT/KT) (MB)  
THOMAS PT LIGHT 1700 56 69 40/ 6/ 8 1023.3F  
BALT KEY BRIDGE 1642 56 290/ 5/ 7 1022.6F  
COVE POINT 1642 56 360/ 10/ 14 1023.3F  
LEWISETTA 1642 59 70 20/ 6/ 9 1022.6F  
SOLOMONS ISLAND 1642 57 71 320/ 6/ 11 1022.7F  
PINEY POINT 1642 20/ 3/ 4 N/A  
 

 
 
 
 
CLICK HERE TO GO TO PREVIOUS BULLETINS.

The Nexlab VA Page
The Nexlab MD Page
The Nexlab WV Page Main Text Page